Chillicothe, MO

9:42 AM CDT on September 18, 2019 (GMT -0500)
Chillicothe

Weather History for KCDJ - July, 2019

Change the Weather History Date:

Wednesday, July 24, 2019

  Actual Average (KIRK) Record (KIRK)
Temperature  
Mean Temperature 72 °F -  
Max Temperature 84 °F 86 °F 110 °F (1934)
Min Temperature 60 °F 65 °F 53 °F (1957)
Cooling Degree Days 7    
Growing Degree Days 22 (Base 50)    
Moisture  
Dew Point 61 °F    
Average Humidity 72    
Maximum Humidity 97    
Minimum Humidity 41    
Precipitation  
Precipitation 0.00 in - - ()
Sea Level Pressure  
Sea Level Pressure 30.17 in    
Wind  
Wind Speed 1 mph (WSW)    
Max Wind Speed 5 mph    
Max Gust Speed -    
Averages and records for this station are not official NWS values.
T = Trace of Precipitation, MM = Missing Value Source: NWS Daily Summary

Daily Weather History Graph

Daily Weather History Graph

Search for Another Location

Airport or City:

Astronomy

Jul. 24, 2019 Rise Set
Actual Time 6:05 AM CDT 8:35 PM CDT
Civil Twilight 5:34 AM CDT 9:06 PM CDT
Nautical Twilight 4:56 AM CDT 9:44 PM CDT
Astronomical Twilight 4:13 AM CDT 10:27 PM CDT
Moon 12:24 AM CDT (7/24) 1:16 PM CDT (7/24)
Length of Visible Light 15h 31m
Length of Day
14h 29m
Waning Gibbous, 53% of the Moon is Illuminated
Jul 24
Waning Gibbous
Jul 24
Last Quarter
Jul 31
New
Aug 7
First Quarter
Aug 15
Full

Hourly Weather History & Observations

Time (CDT) Temp. Heat Index Dew Point Humidity Pressure Visibility Wind Dir Wind Speed Gust Speed Precip Events Conditions
12:52 AM 63.0 °F - 62.1 °F 97% 30.18 in - Calm Calm - N/A   Unknown
1:52 AM 62.1 °F - 61.0 °F 96% 30.18 in - Calm Calm - N/A   Unknown
2:52 AM 61.0 °F - 60.1 °F 97% 30.19 in - Calm Calm - N/A   Unknown
3:52 AM 61.0 °F - 60.1 °F 97% 30.19 in - Calm Calm - N/A   Unknown
4:52 AM 61.0 °F - 60.1 °F 97% 30.20 in - Calm Calm - N/A   Unknown
5:52 AM 60.1 °F - 59.0 °F 96% 30.20 in - Calm Calm - N/A   Unknown
6:52 AM 61.0 °F - 60.1 °F 97% 30.22 in - Calm Calm - N/A   Unknown
7:52 AM 66.9 °F - 62.1 °F 84% 30.23 in - Calm Calm - N/A   Unknown
8:52 AM 72.0 °F - 63.0 °F 73% 30.23 in - Calm Calm - N/A   Unknown
9:52 AM 77.0 °F - 64.0 °F 64% 30.22 in - Calm Calm - N/A   Unknown
10:52 AM 79.0 °F - 62.1 °F 56% 30.21 in - Calm Calm - N/A   Unknown
11:52 AM 79.0 °F - 59.0 °F 50% 30.19 in - Calm Calm - N/A   Unknown
12:52 PM 82.0 °F 81.7 °F 57.0 °F 42% 30.19 in - North - - N/A   Unknown
1:52 PM 81.0 °F 81.0 °F 57.0 °F 44% 30.17 in - Calm Calm - N/A   Unknown
2:52 PM 84.0 °F 84.0 °F 60.1 °F 44% 30.16 in - Variable 3.5 mph - N/A   Unknown
3:52 PM 84.0 °F 83.5 °F 57.9 °F 41% 30.14 in - NW 4.6 mph - N/A   Unknown
4:52 PM 82.9 °F 82.8 °F 59.0 °F 44% 30.13 in - Variable 3.5 mph - N/A   Unknown
5:52 PM 82.0 °F 82.1 °F 59.0 °F 45% 30.12 in - SW 3.5 mph - N/A   Unknown
6:52 PM 82.0 °F 82.7 °F 61.0 °F 49% 30.12 in - SSW 3.5 mph - N/A   Unknown
8:52 PM 72.0 °F - 64.0 °F 76% 30.12 in - Calm Calm - N/A   Unknown
9:52 PM 68.0 °F - 64.9 °F 90% 30.12 in - Calm Calm - N/A   Unknown
10:52 PM 66.0 °F - 64.0 °F 93% 30.13 in - Calm Calm - N/A   Unknown
11:52 PM 64.9 °F - 63.0 °F 93% 30.13 in - Calm Calm - N/A   Unknown